Mount Pocono, PA

6:38 AM EDT on August 27, 2016 (GMT -0400)
Pocono Mountains Municipal

Weather History for KMPO - April, 2013

Change the Weather History Date:

Thursday, April 11, 2013

  Actual Average Record
Temperature  
Mean Temperature 48 °F 44 °F  
Max Temperature 58 °F 53 °F 77 °F (1955)
Min Temperature 37 °F 34 °F 10 °F (1914)
Degree Days  
Heating Degree Days 17 21  
Month to date heating degree days 229 259  
Since 1 July heating degree days 6101 6357  
Cooling Degree Days 0 0  
Month to date cooling degree days 1 0  
Year to date cooling degree days 1 0  
Moisture  
Dew Point 44 °F    
Average Humidity 81    
Maximum Humidity 100    
Minimum Humidity 62    
Precipitation  
Precipitation 0.01 in 0.15 in 3.10 in (1993)
Month to date precipitation 0.58 1.77  
Year to date precipitation 7.44 10.86  
Sea Level Pressure  
Sea Level Pressure 29.90 in    
Wind  
Wind Speed 9 mph (NE)    
Max Wind Speed 17 mph    
Max Gust Speed 25 mph    
Visibility 7 miles    
Events Fog , Rain    
T = Trace of Precipitation, MM = Missing Value Source: NWS Daily Summary

Daily Weather History Graph

Daily Weather History Graph

Search for Another Location

Airport or City:

Trip Planner

Search our weather history database for the weather conditions in past years. The results will help you decide how hot, cold, wet, or windy it might be!

Date:

Astronomy

Apr. 11, 2013 Rise Set
Actual Time 6:28 AM EDT 7:37 PM EDT
Civil Twilight 5:59 AM EDT 8:05 PM EDT
Nautical Twilight 5:26 AM EDT 8:39 PM EDT
Astronomical Twilight 4:50 AM EDT 9:15 PM EDT
Moon 6:57 AM EDT (4/11) 9:10 PM EDT (4/11)
Length of Visible Light 14h 06m
Length of Day
13h 09m
New Moon, 2% of the Moon is Illuminated
Apr 11
New Moon
Apr 18
First Quarter
Apr 25
Full
May 2
Last Quarter
May 9
New

Hourly Weather History & Observations

Time (EDT) Temp. Windchill Dew Point Humidity Pressure Visibility Wind Dir Wind Speed Gust Speed Precip Events Conditions
12:53 AM 57.9 °F - 55.0 °F 90% 29.84 in 10.0 mi NW 15.0 mph 21.9 mph 0.03 in Rain Light Rain
1:53 AM 55.9 °F - 54.0 °F 93% 29.79 in 10.0 mi South 3.5 mph - 0.01 in   Mostly Cloudy
2:04 AM 55.4 °F - 55.4 °F 100% 29.83 in 10.0 mi West 4.6 mph - N/A   Mostly Cloudy
2:12 AM 55.4 °F - 55.4 °F 100% 29.83 in 9.0 mi WNW 5.8 mph - N/A   Mostly Cloudy
2:33 AM 57.2 °F - 55.4 °F 94% 29.84 in 10.0 mi NW 12.7 mph 19.6 mph N/A   Overcast
2:53 AM 53.1 °F - 51.1 °F 93% 29.81 in 4.0 mi NNW 9.2 mph - N/A   Overcast
3:02 AM 51.8 °F - 51.8 °F 100% 29.83 in 1.8 mi NNW 13.8 mph 18.4 mph N/A   Overcast
3:12 AM 51.8 °F - 50.0 °F 94% 29.83 in 3.0 mi NNW 13.8 mph 20.7 mph N/A   Overcast
3:53 AM 50.0 °F - 48.9 °F 96% 29.84 in 2.5 mi NW 11.5 mph 18.4 mph N/A   Overcast
4:03 AM 50.0 °F - 48.2 °F 94% 29.85 in 1.2 mi NNW 11.5 mph 19.6 mph N/A   Overcast
4:18 AM 50.0 °F - 48.2 °F 94% 29.85 in 3.0 mi NNW 9.2 mph - N/A   Overcast
4:53 AM 48.9 °F - 46.9 °F 93% 29.86 in 9.0 mi NNW 10.4 mph - N/A   Overcast
5:05 AM 48.2 °F - 46.4 °F 93% 29.88 in 5.0 mi NNW 9.2 mph 18.4 mph N/A   Overcast
5:53 AM 48.0 °F - 46.0 °F 93% 29.91 in 10.0 mi NNW 5.8 mph - N/A   Overcast
6:41 AM 46.4 °F 44.3 °F 46.4 °F 100% 29.91 in 1.5 mi NNW 4.6 mph - N/A   Overcast
6:48 AM 46.4 °F - 46.4 °F 100% 29.90 in 0.2 mi Calm Calm - N/A Fog Fog
6:53 AM 46.9 °F - 46.0 °F 97% 29.91 in 0.2 mi Calm Calm - N/A Fog Fog
7:09 AM 46.4 °F - 44.6 °F 93% 29.90 in 0.8 mi Calm Calm - N/A   Mist
7:12 AM 46.4 °F - 44.6 °F 93% 29.89 in 3.0 mi Calm Calm - N/A   Overcast
7:53 AM 48.0 °F - 45.0 °F 89% 29.92 in 10.0 mi NNE 3.5 mph - N/A   Overcast
8:53 AM 46.9 °F - 45.0 °F 93% 29.94 in 10.0 mi North 5.8 mph - N/A   Overcast
9:39 AM 48.2 °F - 44.6 °F 87% 29.93 in 10.0 mi NNW 5.8 mph - N/A   Overcast
9:53 AM 50.0 °F - 46.0 °F 86% 29.94 in 10.0 mi North 8.1 mph - N/A   Overcast
10:53 AM 53.1 °F - 46.9 °F 80% 29.93 in 10.0 mi SE 8.1 mph - N/A   Overcast
11:53 AM 55.0 °F - 46.9 °F 74% 29.94 in 10.0 mi SE 5.8 mph - N/A   Overcast
1:45 PM 53.6 °F - 48.2 °F 82% 29.93 in 10.0 mi ESE 9.2 mph - N/A   Overcast
1:53 PM 54.0 °F - 48.0 °F 80% 29.94 in 10.0 mi ESE 8.1 mph - N/A   Overcast
2:53 PM 52.0 °F - 48.0 °F 86% 29.94 in 6.0 mi East 10.4 mph - N/A   Overcast
3:53 PM 50.0 °F - 45.0 °F 83% 29.93 in 10.0 mi East 11.5 mph - N/A   Overcast
4:53 PM 50.0 °F - 44.1 °F 80% 29.93 in 10.0 mi East 9.2 mph - N/A   Overcast
5:50 PM 48.2 °F - 39.2 °F 71% 29.92 in 10.0 mi East 12.7 mph 20.7 mph N/A   Overcast
5:53 PM 48.0 °F - 39.9 °F 74% 29.94 in 10.0 mi East 10.4 mph 20.7 mph N/A   Overcast
6:53 PM 45.0 °F 38.9 °F 36.0 °F 71% 29.95 in 10.0 mi East 12.7 mph - N/A   Overcast
7:53 PM 43.0 °F 36.8 °F 32.0 °F 65% 29.96 in 10.0 mi East 11.5 mph 19.6 mph N/A   Overcast
8:35 PM 42.8 °F 36.6 °F 30.2 °F 61% 29.93 in 10.0 mi East 11.5 mph - N/A   Overcast
8:53 PM 42.1 °F 35.2 °F 30.9 °F 65% 29.97 in 10.0 mi East 12.7 mph 18.4 mph N/A   Overcast
9:53 PM 41.0 °F 33.9 °F 30.9 °F 67% 29.99 in 10.0 mi East 12.7 mph 18.4 mph N/A   Overcast
10:53 PM 39.0 °F 31.0 °F 33.1 °F 79% 29.98 in 10.0 mi ESE 13.8 mph 20.7 mph N/A   Overcast
11:01 PM 39.2 °F 30.8 °F 33.8 °F 81% 29.95 in 9.0 mi ESE 15.0 mph 20.7 mph N/A   Overcast
11:42 PM 37.4 °F 28.9 °F 33.8 °F 87% 29.93 in 3.0 mi ESE 13.8 mph 23.0 mph N/A   Overcast
11:53 PM 37.0 °F 28.5 °F 35.1 °F 93% 29.95 in 3.0 mi East 13.8 mph - N/A   Overcast